Mazatlan Airport, Mexico

12:10 AM MDT on April 26, 2017 (GMT -0600)
Gen Rafael Buelna International

Weather History for MMMZ - December, 2013

Change the Weather History Date:

Sunday, December 1, 2013

  Actual Average Record
Temperature  
Mean Temperature 72 °F -  
Max Temperature 84 °F 82 °F 86 °F (1997)
Min Temperature 60 °F 58 °F 50 °F (2011)
Cooling Degree Days 7    
Growing Degree Days 22 (Base 50)    
Moisture  
Dew Point 62 °F    
Average Humidity 74    
Maximum Humidity 92    
Minimum Humidity 51    
Precipitation  
Precipitation 0.00 in - - ()
Sea Level Pressure  
Sea Level Pressure 29.95 in    
Wind  
Wind Speed 8 mph ()    
Max Wind Speed 90 mph    
Max Gust Speed -    
Visibility 10.8 miles    
Events      
Averages and records for this station are not official NWS values.
T = Trace of Precipitation, MM = Missing Value Source: Averaged Metar Reports

Daily Weather History Graph

Daily Weather History Graph

Search for Another Location

Airport or City:

Trip Planner

Search our weather history database for the weather conditions in past years. The results will help you decide how hot, cold, wet, or windy it might be!

Date:

Astronomy

Dec. 01, 2013 Rise Set
Actual Time 6:29 AM MST 5:18 PM MST
Civil Twilight 6:05 AM MST 5:42 PM MST
Nautical Twilight 5:37 AM MST 6:10 PM MST
Astronomical Twilight 5:10 AM MST 6:38 PM MST
Moon 4:59 AM MST (12/1) 4:24 PM MST (12/1)
Length of Visible Light 11h 37m
Length of Day
10h 48m
Waning Crescent, 2% of the Moon is Illuminated
Dec 1
Waning Crescent
Dec 2
New
Dec 9
First Quarter
Dec 17
Full
Dec 25
Last Quarter

Hourly Weather History & Observations

Time (MST) Temp. Heat Index Dew Point Humidity Pressure Visibility Wind Dir Wind Speed Gust Speed Precip Events Conditions
12:47 AM 62.6 °F - 57.2 °F 82% 29.97 in 10.0 mi Calm Calm - N/A   Clear
1:44 AM 60.8 °F - 57.2 °F 88% 29.95 in 10.0 mi NNE 8.1 mph - N/A   Clear
2:00 AM 68 °F - 66 °F 92% 29.97 in - Calm Calm - -  
2:44 AM 60.8 °F - 57.2 °F 88% 29.94 in 10.0 mi NNE 5.8 mph - N/A   Clear
3:46 AM 62.6 °F - 57.2 °F 82% 29.94 in 10.0 mi NNE 4.6 mph - N/A   Clear
4:52 AM 60.8 °F - 57.2 °F 88% 29.94 in 10.0 mi NNE 6.9 mph - N/A   Clear
5:44 AM 60.8 °F - 57.2 °F 88% 29.95 in 10.0 mi NNE 9.2 mph - N/A   Clear
6:40 AM 62.6 °F - 57.2 °F 82% 29.96 in 10.0 mi NNE 8.1 mph - N/A   Scattered Clouds
7:47 AM 64.4 °F - 60.8 °F 88% 29.98 in 10.0 mi WNW 6.9 mph - N/A   Mostly Cloudy
8:00 AM 71 °F - 65 °F 78% 30.01 in - NW 2.2 mph - -  
8:47 AM 69.8 °F - 62.6 °F 78% 30.00 in 10.0 mi NNE 89.8 mph - N/A   Mostly Cloudy
9:40 AM 75.2 °F - 62.6 °F 65% 30.00 in 12.0 mi NE 9.2 mph - N/A   Mostly Cloudy
10:41 AM 80.6 °F 82.3 °F 64.4 °F 58% 29.98 in 12.0 mi WNW 6.9 mph - N/A   Mostly Cloudy
11:00 AM 84 °F - 69 °F 51% 30.00 in - SW 4.5 mph - -  
11:40 AM 82.4 °F 83.9 °F 64.4 °F 54% 29.96 in 12.0 mi SW 10.4 mph - N/A   Mostly Cloudy
12:44 PM 80.6 °F 82.7 °F 66.2 °F 61% 29.94 in 10.0 mi West 13.8 mph - N/A   Mostly Cloudy
1:43 PM 82.4 °F 83.9 °F 64.4 °F 54% 29.92 in 10.0 mi SW 11.5 mph - N/A   Mostly Cloudy
2:44 PM 80.6 °F 82.3 °F 64.4 °F 58% 29.92 in 14.0 mi WSW 11.5 mph - N/A   Mostly Cloudy
3:50 PM 78.8 °F - 64.4 °F 61% 29.90 in 14.0 mi WSW 9.2 mph - N/A   Mostly Cloudy
4:45 PM 78.8 °F - 62.6 °F 57% 29.91 in 14.0 mi West 10.4 mph - N/A   Mostly Cloudy
5:49 PM 73.4 °F - 62.6 °F 69% 29.90 in 12.0 mi WSW 9.2 mph - N/A   Mostly Cloudy
6:43 PM 71.6 °F - 62.6 °F 73% 29.91 in 10.0 mi West 8.1 mph - N/A   Mostly Cloudy
7:40 PM 69.8 °F - 62.6 °F 78% 29.92 in 10.0 mi WNW 6.9 mph - N/A   Mostly Cloudy
8:00 PM 76 °F - 71 °F 80% 29.95 in - WNW 4.5 mph - -  
8:43 PM 68.0 °F - 60.8 °F 78% 29.94 in 10.0 mi WNW 8.1 mph - N/A   Mostly Cloudy
9:40 PM 66.2 °F - 60.8 °F 83% 29.96 in 10.0 mi ENE 8.1 mph - N/A   Mostly Cloudy
10:41 PM 66.2 °F - 60.8 °F 83% 29.96 in 10.0 mi WNW 3.5 mph - N/A   Overcast
11:43 PM 66.2 °F - 60.8 °F 83% 29.94 in 10.0 mi North 6.9 mph - N/A   Partly Cloudy